Cloud_Cover
0 0 0 0 0 0 0 0 0 0 0 0 0 0 0 0 0 0 0 0 0 0 0 0 0 0 0 0 0 0 0 0 0 0 0 0 0 0 0 0 0 0 0 0 0 0 0 0 0 0 0 0 0 0 0 0 0 0 0 0 0 8 24 8 0 12 44 68 76 48 0 12 12 24 68 88 92 80 48 80 92 88 92 76 48 36 56 88 88 68 64 88 92 80 36 8 0 0 0 0 0 0 0
0 0 0 0 0 0 0 0 0 0 0 0 0 0 0 0 0 0 0 0 0 0 0 0 0 0 0 0 0 0 0 0 0 0 0 0 0 0 0 0 0 0 0 0 0 0 0 0 0 0 0 0 0 0 0 0 0 0 12 56 76 56 8 0 0 8 36 56 76 88 76 24 8 20 64 88 92 92 80 76 88 92 92 88 76 56 36 64 76 80 76 76 64 36 32 8 0 0 0 0 0 0 0
0 0 0 0 0 0 0 0 0 0 0 0 0 0 0 0 0 0 0 0 0 0 0 0 0 0 0 0 0 0 0 0 0 0 0 0 0 0 0 0 0 0 0 0 0 0 0 0 0 0 0 0 0 0 0 0 0 0 0 20 56 68 0 0 0 8 24 20 56 88 64 20 8 8 12 44 64 68 68 36 64 92 92 92 68 44 56 68 64 56 48 44 44 32 12 20 8 0 0 0 0 0 0
0 0 0 0 0 0 0 0 0 0 0 0 0 0 0 0 0 0 0 0 0 0 0 0 0 0 0 0 0 0 0 0 0 0 0 0 0 0 0 0 0 0 0 0 0 0 0 0 0 0 0 0 0 0 0 0 0 0 0 0 12 20 0 0 0 0 0 8 24 48 80 44 20 8 8 48 68 68 64 48 48 56 76 64 36 20 20 12 8 12 32 24 32 36 44 12 0 0 0 0 0 0 0
0 0 0 0 0 0 0 0 0 0 0 0 0 0 0 0 0 0 0 0 0 0 0 0 0 0 0 0 0 0 0 0 0 0 0 0 0 0 0 0 0 0 0 0 0 0 0 0 0 0 0 0 0 0 0 0 0 0 0 0 0 0 0 0 0 0 0 0 20 48 76 68 32 0 0 8 48 88 76 56 44 36 44 48 56 44 0 0 0 0 0 0 0 0 0 0 0 0 0 0 0 0 0
0 0 0 0 0 0 0 0 0 0 0 0 0 0 0 0 0 0 0 0 0 0 0 0 0 0 0 0 0 0 0 0 0 0 0 0 0 0 0 0 0 0 0 0 0 0 0 0 0 0 0 0 0 0 0 0 0 0 0 0 0 0 0 0 0 0 0 0 0 12 32 56 36 12 0 0 0 24 92 92 68 44 44 44 48 48 48 12 0 0 0 0 0 0 0 0 0 0 0 0 0 0 0
0 0 0 0 0 0 0 0 0 0 0 0 0 0 0 0 0 0 0 0 0 0 0 0 0 0 0 0 0 0 0 0 0 0 0 0 0 0 0 0 0 0 0 0 0 0 0 0 0 0 0 0 0 0 0 0 0 0 0 0 0 0 0 0 0 0 0 0 0 8 8 0 36 56 8 0 0 20 76 48 44 44 48 56 56 48 36 8 0 0 0 0 0 0 0 0 0 0 0 0 0 0 0
0 0 0 0 0 0 0 0 0 0 0 0 0 0 0 0 0 0 0 0 0 0 0 0 0 0 0 0 0 0 0 0 0 0 0 0 0 0 0 0 0 0 0 0 0 0 0 0 0 0 0 0 0 0 0 0 0 0 0 0 0 0 0 0 0 0 0 0 0 0 0 0 44 76 8 20 12 20 36 44 36 32 32 12 12 12 0 0 0 0 0 0 0 0 0 0 0 0 0 0 0 0 0
0 0 0 0 0 0 0 0 0 0 0 0 0 0 0 0 0 0 0 0 0 0 0 0 0 0 0 0 0 0 0 0 0 0 0 0 0 0 0 0 0 0 0 0 0 0 0 0 0 0 0 0 0 0 0 0 0 0 0 0 0 0 0 0 0 0 0 0 0 0 0 0 8 24 68 88 48 8 20 8 0 8 32 8 0 0 0 8 8 8 0 0 8 0 0 0 0 0 0 0 0 0 0
0 0 0 0 0 0 0 0 0 0 0 0 0 0 0 0 0 0 0 0 0 0 0 0 0 0 0 0 0 0 0 0 0 0 0 0 0 0 0 0 0 0 0 0 0 0 0 0 0 0 0 0 0 0 0 0 0 0 0 0 0 0 0 0 0 0 0 0 0 0 0 0 0 8 12 32 44 44 0 0 0 0 0 0 8 12 12 8 0 8 12 0 0 0 0 0 0 0 0 0 0 0 0
0 0 0 0 0 0 0 0 0 0 0 0 0 0 0 0 0 0 0 0 0 0 0 0 0 0 0 0 0 0 0 0 0 0 0 0 0 0 0 0 0 0 0 0 0 0 0 0 0 0 0 0 0 0 0 0 0 0 0 0 0 0 0 0 0 0 0 0 0 0 0 0 0 0 0 12 20 24 44 8 0 0 0 0 0 0 0 0 0 0 0 0 0 0 0 0 0 0 0 0 0 0 0
24 36 0 0 0 0 0 0 0 0 0 0 0 0 0 0 0 0 0 0 0 0 0 0 0 0 0 0 0 0 0 0 0 0 0 0 0 0 0 0 0 0 0 0 0 0 0 0 0 0 0 0 0 0 0 0 0 0 0 0 0 0 0 0 0 0 0 0 0 0 0 0 0 0 0 0 12 24 24 8 0 0 0 0 0 0 0 0 0 0 0 0 0 0 0 0 0 0 0 0 0 0 0
48 68 12 0 0 0 0 0 0 0 0 0 0 0 0 0 0 0 0 0 0 0 0 0 0 0 0 0 0 0 0 0 0 0 0 0 0 0 0 0 0 0 0 0 0 0 0 0 0 0 0 0 0 0 0 0 0 0 0 0 0 0 0 0 0 0 0 0 0 0 0 0 0 0 0 0 0 0 0 0 0 0 0 0 0 0 0 0 0 0 0 0 0 0 0 0 0 0 0 0 0 0 0
48 64 44 8 0 0 0 0 0 0 0 0 0 0 0 0 0 0 0 0 0 0 0 0 0 0 0 0 0 0 0 0 0 0 0 0 0 0 0 0 0 0 0 0 0 0 0 0 0 0 0 0 0 0 0 0 0 0 0 0 0 0 0 0 0 0 8 0 0 0 0 0 0 0 0 0 0 0 0 0 0 0 0 0 0 0 0 0 0 0 0 0 0 0 0 0 0 0 0 0 0 0 0
32 32 24 8 0 0 0 0 8 12 0 0 0 0 0 0 0 0 0 0 0 0 0 0 0 0 0 0 0 0 0 0 0 0 0 0 0 0 0 0 0 0 0 0 0 0 0 0 0 0 0 0 0 0 0 0 0 0 0 0 0 0 0 0 0 0 0 0 0 0 0 0 0 0 0 0 0 0 0 0 0 0 0 0 0 0 0 0 0 0 0 0 0 0 0 0 0 0 0 0 0 0 0
36 24 12 0 0 0 12 12 36 48 0 0 0 0 0 0 0 0 0 0 0 0 0 0 0 0 0 0 0 0 0 0 0 0 0 0 0 0 0 0 0 0 0 0 0 0 0 0 0 0 0 0 0 0 0 0 0 0 0 0 0 0 0 0 0 0 8 8 0 0 0 0 0 0 0 0 0 0 0 0 0 0 0 0 0 0 0 0 0 0 0 0 0 0 0 0 0 0 0 0 0 0 0
44 36 20 0 0 12 64 64 68 56 0 0 0 0 0 0 0 0 0 0 0 0 0 0 0 0 0 0 0 0 0 0 0 0 0 0 0 0 0 0 0 0 0 0 0 0 0 0 0 0 0 0 0 0 0 0 0 0 0 0 0 0 0 0 0 0 8 12 8 0 0 0 0 0 0 0 0 0 0 0 0 0 0 0 0 0 0 0 0 0 0 0 0 0 0 0 0 0 0 0 0 0 0
24 36 24 8 24 56 92 68 68 56 0 0 0 0 0 0 0 0 0 0 0 0 0 0 0 0 0 0 0 0 0 0 0 0 0 0 0 0 0 0 0 0 0 0 0 0 0 0 0 0 0 0 0 0 0 0 0 0 0 0 0 0 0 0 0 0 0 0 0 0 0 0 0 0 0 0 0 0 0 0 0 0 0 0 0 0 0 0 0 0 0 0 0 0 0 0 0 0 0 0 0 0 0
8 12 12 20 56 92 92 32 20 20 0 0 0 0 0 0 0 0 0 0 0 0 0 0 0 0 0 0 0 0 8 0 0 0 0 0 0 0 0 0 0 0 0 0 0 0 0 0 0 0 0 0 0 0 0 0 0 0 0 0 0 0 0 0 0 0 0 0 0 0 0 0 0 0 0 0 0 0 0 0 0 0 0 0 0 0 0 0 0 0 0 0 0 0 0 0 0 0 0 0 0 0 0
0 0 0 8 36 64 44 12 0 0 0 0 0 0 0 0 0 0 0 0 0 0 0 0 0 0 0 8 8 0 0 0 0 0 0 0 0 0 0 0 0 0 0 0 0 0 0 0 0 0 0 0 0 0 0 0 0 0 0 0 0 0 0 0 0 0 0 0 0 0 0 0 0 0 0 0 0 0 0 0 0 0 0 0 0 0 0 0 0 0 0 0 0 0 0 0 0 0 0 0 0 0 0
0 0 0 0 8 12 0 0 0 0 0 0 0 0 0 0 0 0 0 0 0 0 0 8 20 36 36 20 8 0 0 0 0 0 0 0 0 0 0 0 0 0 0 0 0 0 0 0 0 0 0 0 0 0 0 0 0 0 0 0 0 0 0 0 0 0 0 0 0 0 0 0 0 0 0 0 0 0 0 0 0 0 0 0 0 0 0 0 0 0 0 0 0 0 0 0 0 0 0 0 0 0 0
0 0 0 0 0 0 0 20 32 24 0 0 0 0 0 0 0 0 0 0 0 0 0 32 48 64 64 20 0 0 0 0 0 0 0 0 0 0 0 0 0 0 0 0 0 0 0 0 0 0 0 0 0 0 0 0 0 0 0 0 0 0 0 0 0 0 0 0 0 0 0 0 0 0 0 0 0 0 0 0 0 0 0 0 0 0 0 0 0 0 0 0 0 0 0 0 0 0 0 0 0 0 0
0 0 0 0 0 0 0 12 20 12 0 0 0 0 8 32 32 12 0 0 12 24 44 56 68 68 64 12 0 0 0 0 0 0 0 0 0 0 0 0 0 0 0 0 0 0 0 0 0 0 0 0 0 0 0 0 0 0 0 0 0 0 0 0 0 0 0 0 0 0 0 0 0 0 0 0 0 0 0 0 0 0 0 0 0 0 0 0 0 0 0 0 0 0 0 0 0 0 0 0 0 0 0
0 0 0 0 0 0 0 0 0 0 0 0 0 0 0 44 44 24 8 8 12 32 64 64 68 76 68 44 20 0 0 0 0 0 0 0 0 0 0 0 0 0 0 0 0 0 0 0 0 0 0 0 0 0 0 0 0 0 0 0 0 0 0 0 0 0 0 0 0 0 0 0 0 0 0 0 0 0 0 0 0 0 0 0 0 0 0 0 0 0 0 0 0 0 0 0 0 0 0 0 0 0 0
0 0 0 0 0 0 0 0 0 0 0 0 0 0 0 24 32 20 12 20 20 32 64 64 68 76 76 64 36 12 8 0 0 0 0 0 0 0 0 0 0 0 0 0 0 0 0 0 0 0 0 0 0 0 0 0 0 0 0 0 0 0 0 0 0 0 0 0 0 0 0 0 0 0 0 0 0 0 0 0 0 0 0 0 0 0 0 0 0 0 0 0 0 0 0 0 0 0 0 0 0 0 0
0 0 0 0 0 0 0 0 0 0 0 0 0 0 0 12 20 20 0 20 24 32 44 64 76 80 76 68 44 12 8 0 0 0 0 0 0 0 0 0 0 0 0 0 0 0 0 0 0 0 0 0 0 0 0 0 0 0 0 0 0 0 0 0 0 0 0 0 0 0 0 0 0 0 0 0 0 0 0 0 0 0 0 0 0 0 0 0 0 0 0 0 0 0 0 0 0 0 0 0 0 0 0
0 0 0 0 0 0 0 0 0 0 0 0 0 0 0 0 8 8 0 0 12 32 32 56 68 76 80 68 44 24 20 12 8 0 0 0 0 0 0 0 0 0 0 0 0 0 0 0 0 0 0 0 0 0 0 0 0 0 0 0 0 0 0 0 0 0 0 0 0 0 0 0 0 0 0 0 0 0 0 0 0 0 0 0 0 0 0 0 0 0 0 0 0 0 0 0 0 0 0 0 0 0 0
12 0 0 56 64 44 12 20 12 0 0 0 0 0 0 0 0 0 0 0 0 8 24 44 48 56 56 48 44 36 32 24 24 20 12 12 8 8 8 0 0 0 0 0 0 0 0 0 0 0 0 0 0 0 0 0 0 0 0 0 0 0 0 0 0 0 0 0 0 0 0 0 0 0 0 0 0 0 0 0 0 0 0 0 0 0 0 0 0 0 0 0 0 0 0 0 0 0 0 0 0 0 0
24 12 20 64 80 80 80 80 56 24 0 0 0 0 0 0 0 0 0 0 0 0 0 36 48 48 48 44 44 48 44 36 32 24 20 20 20 20 12 12 12 8 0 0 0 0 0 0 0 0 0 0 0 0 0 0 0 0 0 0 0 0 0 0 0 0 0 0 0 0 0 0 0 0 0 0 0 0 0 0 0 0 0 0 0 0 0 0 0 0 0 0 0 0 0 0 0 0 0 0 0 0 0
20 12 8 36 56 68 88 88 88 80 68 80 88 68 12 0 0 0 0 0 0 0 0 0 32 56 56 56 56 64 56 44 36 36 32 32 32 32 24 20 20 12 8 0 0 8 0 0 0 0 0 0 0 0 0 0 0 0 0 0 0 0 0 0 0 0 0 0 0 0 0 0 0 0 0 0 0 0 0 0 0 0 0 0 0 0 0 0 0 0 0 0 0 0 0 0 0 0 0 0 8 8 0
8 0 0 24 44 56 64 76 80 88 88 88 88 80 48 12 0 0 0 0 0 0 0 0 20 48 68 68 68 68 64 48 44 36 36 36 36 44 36 32 24 24 20 12 12 12 8 8 0 0 0 0 0 0 0 0 0 0 0 0 0 0 0 0 0 0 0 0 0 0 0 0 0 0 0 0 0 0 0 0 0 0 0 0 0 0 0 0 0 0 0 0 0 0 0 0 0 0 0 8 8 12 32
0 0 0 0 12 32 36 64 80 88 88 88 88 76 36 24 12 8 0 0 0 0 0 0 0 0 0 0 36 76 68 64 56 44 44 44 48 48 48 36 36 32 24 20 20 20 12 8 8 8 0 0 0 0 0 0 0 0 0 0 0 0 0 0 0 0 0 0 0 0 0 0 0 0 0 0 0 0 0 0 0 0 0 0 0 0 0 0 0 0 0 0 0 0 0 0 0 0 0 0 8 20 44
0 0 0 0 0 0 12 36 36 32 44 76 76 64 32 32 20 8 0 0 0 0 0 0 0 0 0 0 24 64 76 76 64 48 44 48 56 64 56 48 48 44 36 36 32 32 24 20 12 12 8 8 8 0 0 0 0 0 0 0 0 0 0 0 0 0 0 0 0 0 0 0 0 0 0 0 0 0 0 0 0 0 0 0 0 0 0 0 0 0 0 0 0 0 0 0 0 0 0 0 8 12 24
0 0 0 0 0 0 0 8 8 12 12 24 32 36 44 24 12 8 0 0 0 0 0 0 0 0 0 0 0 12 56 68 68 64 44 48 64 64 64 64 56 48 44 44 44 36 32 24 20 20 20 12 12 8 8 0 0 0 0 0 0 0 0 0 0 0 0 0 0 0 0 0 0 0 0 0 0 0 0 0 0 0 0 0 0 0 0 0 0 0 0 8 8 0 0 0 0 0 0 0 8 12 12
0 0 0 0 0 0 0 0 0 0 0 8 12 12 20 8 0 0 0 0 0 0 0 0 0 0 0 0 0 0 0 32 44 48 48 64 68 68 76 68 68 64 56 56 56 48 36 36 36 32 24 20 20 12 8 8 8 8 0 0 0 0 0 0 0 0 0 0 0 0 0 0 0 0 0 0 0 0 0 0 0 0 0 0 0 0 0 8 8 8 8 8 8 8 8 8 8 8 0 0 8 8 20
0 0 0 0 0 0 0 0 0 0 0 0 0 0 0 0 0 0 0 0 0 0 0 0 0 0 0 0 0 0 0 0 0 12 48 32 36 48 56 68 68 68 64 68 64 56 48 44 44 36 32 32 24 20 12 8 12 12 8 0 0 0 0 0 0 0 0 0 0 0 0 0 0 0 0 0 0 0 0 0 0 0 0 0 0 0 0 8 8 8 8 12 8 8 8 8 8 8 8 8 8 8 8
0 0 0 0 0 0 0 0 0 0 0 0 0 0 0 0 0 0 0 0 0 0 0 0 0 0 0 0 0 0 0 0 0 0 0 0 0 0 0 56 68 68 68 68 64 64 56 48 44 44 36 36 32 24 20 12 12 12 12 8 0 0 0 0 0 0 0 0 0 0 0 0 0 0 0 0 0 0 0 0 0 0 0 0 0 8 8 8 12 12 12 12 12 8 8 8 8 8 8 8 8 0 0
0 0 0 0 0 0 0 0 0 0 0 0 0 0 0 0 0 0 0 0 0 0 0 0 0 8 8 8 8 0 0 0 0 0 0 0 0 0 12 36 64 76 68 76 68 64 64 56 48 44 44 36 36 32 24 20 20 12 12 12 8 8 0 0 0 0 0 0 0 0 0 0 0 0 0 0 0 0 0 0 0 0 12 12 8 8 8 12 12 12 12 8 8 8 0 0 8 8 8 0 0 0 0
0 0 0 0 0 0 0 0 0 0 0 0 0 0 0 0 0 0 0 0 0 0 0 0 8 12 12 8 0 0 0 0 0 0 0 0 0 0 8 0 32 48 32 56 68 76 76 68 56 48 48 44 44 36 32 32 24 20 20 20 12 8 8 0 0 0 0 0 0 0 0 0 0 0 0 0 0 0 0 0 0 8 24 24 12 8 8 12 12 12 12 8 8 8 0 0 0 0 0 0 0 0 0
0 0 0 0 0 0 0 0 0 0 0 0 0 0 0 0 8 8 8 8 8 8 8 8 12 12 8 0 0 0 0 0 0 0 0 0 0 0 0 0 0 0 8 0 32 56 68 68 56 48 48 48 44 36 32 36 36 32 24 20 20 12 8 8 0 0 0 0 0 0 0 0 0 0 0 0 0 0 0 0 0 8 12 20 12 8 12 12 12 12 12 12 12 8 8 0 0 0 0 0 0 0 0
0 0 0 0 0 0 0 0 0 0 0 0 8 8 12 12 12 12 12 12 12 12 12 12 8 0 0 0 0 0 0 0 0 0 0 0 0 0 0 0 0 8 8 8 8 12 36 44 32 24 36 32 32 32 36 44 44 36 32 24 20 12 8 8 0 0 0 0 0 0 0 0 0 0 0 0 0 0 0 0 0 8 20 12 8 8 12 12 12 12 12 12 12 12 8 12 8 0 0 0 0 0 0
0 0 0 0 0 0 0 0 0 0 12 12 20 20 20 20 20 20 20 20 20 20 12 8 0 0 0 0 0 0 0 0 0 0 0 0 0 0 0 8 8 8 12 12 12 12 12 12 12 12 8 8 12 20 24 24 32 36 36 32 20 12 8 8 0 0 0 0 0 0 0 0 0 0 0 0 0 0 0 0 0 12 24 12 12 8 12 12 12 12 12 12 12 12 20 20 20 8 0 0 0 0 0
0 0 0 0 0 0 0 0 8 12 24 24 24 32 32 32 32 24 24 20 20 12 8 0 0 0 0 0 0 0 0 0 0 0 0 0 0 0 8 8 8 12 12 20 20 20 20 20 12 12 12 8 8 8 8 0 8 20 36 32 24 12 8 0 0 0 0 0 0 0 0 0 0 0 0 0 0 0 0 0 8 12 32 20 12 12 12 12 12 12 12 12 12 12 24 20 24 24 8 8 8 8 0
0 0 0 8 8 8 12 12 20 24 32 32 36 36 44 36 36 32 24 12 8 8 0 0 0 0 0 0 0 0 0 0 0 0 0 0 8 8 8 8 12 20 20 20 20 24 20 20 12 12 12 8 8 8 8 0 0 8 32 24 20 8 0 0 0 0 0 0 0 0 0 0 0 0 0 0 0 0 0 0 0 12 24 20 20 12 12 12 12 12 12 12 12 12 12 12 24 32 20 8 8 8 0
8 8 8 12 12 20 20 24 32 36 44 48 48 48 48 36 32 24 20 8 8 0 8 0 0 0 0 0 0 0 0 0 0 0 8 20 12 8 8 12 12 20 20 24 24 24 20 20 20 12 8 8 8 8 0 0 0 8 24 20 12 8 0 0 0 0 0 0 0 0 0 8 8 8 0 0 0 8 0 0 0 8 20 24 24 20 20 20 12 12 12 12 8 8 8 8 12 24 36 20 12 8 0
12 12 20 20 24 24 24 44 48 48 56 56 56 48 36 24 20 12 12 8 8 8 0 0 0 0 0 0 0 0 0 0 8 8 12 36 36 24 32 24 24 24 24 24 24 24 20 12 12 8 8 8 0 0 0 0 0 8 24 12 8 0 0 0 0 0 0 0 0 0 0 12 20 20 12 8 12 24 20 0 0 8 20 24 24 24 24 24 20 12 12 8 8 8 8 8 8 12 20 12 8 8 8
24 24 32 32 36 36 48 64 64 64 64 44 36 32 24 20 12 12 20 12 12 12 8 8 0 0 0 0 0 0 0 8 8 8 8 20 44 56 48 48 44 36 24 20 20 20 20 12 8 8 0 0 0 0 0 0 0 0 8 12 8 0 0 0 0 0 0 0 0 0 0 0 12 24 24 20 32 44 44 24 12 12 32 32 36 32 32 32 24 20 20 12 8 8 8 8 8 8 8 8 8 8 8
32 36 36 44 48 56 64 56 48 44 36 32 32 32 24 24 20 20 20 12 24 32 20 12 8 8 8 0 0 8 8 12 12 12 12 12 44 68 64 76 64 44 24 12 8 8 8 0 0 0 0 0 0 0 0 0 0 0 0 0 0 0 0 0 0 0 0 0 0 0 0 0 0 12 24 24 44 64 64 44 32 32 36 44 44 44 44 36 32 24 20 12 12 8 8 8 8 8 8 12 8 8 8
44 48 56 64 64 56 48 44 36 32 32 32 24 24 20 24 24 20 20 20 36 56 48 48 48 44 24 20 12 12 12 20 20 20 20 20 32 44 56 44 36 32 12 0 0 0 0 0 0 0 0 0 0 0 0 0 0 0 0 0 0 0 0 0 0 0 0 0 0 0 0 8 8 8 8 20 24 36 68 56 48 44 48 56 56 56 56 44 36 32 24 20 20 12 12 8 8 8 12 20 12 12 8
64 64 64 56 44 44 36 32 24 20 20 20 20 20 20 24 24 32 32 68 76 76 88 88 88 76 48 36 24 20 20 20 24 32 32 20 12 20 24 8 0 8 8 0 0 0 0 0 0 0 0 0 0 0 0 0 0 0 0 0 0 0 0 0 0 0 8 8 8 8 8 20 20 20 8 8 12 24 64 64 56 56 64 64 64 64 64 56 48 36 32 24 20 20 12 12 12 12 12 20 20 20 12
76 68 44 36 36 32 32 32 24 20 20 20 24 24 32 36 36 56 88 76 80 92 92 76 64 48 56 48 32 24 32 32 36 44 44 12 8 8 12 8 20 24 20 20 20 20 8 8 0 0 0 0 0 0 8 8 0 0 0 0 0 0 0 0 0 8 12 12 20 20 24 32 36 32 24 12 20 36 44 80 88 80 80 76 76 76 68 68 56 48 56 44 32 24 24 24 20 12 12 24 24 24 24
48 44 32 36 44 44 36 36 32 24 24 32 36 44 48 44 44 48 64 56 56 64 88 76 64 48 48 56 48 44 44 32 24 24 24 8 0 0 8 64 88 68 8 12 12 12 0 0 0 0 0 8 12 20 32 24 12 12 8 8 8 8 8 8 8 20 36 36 44 44 48 56 56 48 44 44 44 48 48 76 88 92 92 88 80 76 76 68 64 64 68 48 44 36 32 24 24 20 12 24 32 36 36
36 36 44 48 48 48 44 44 44 44 48 44 44 56 68 68 68 68 76 64 56 48 48 56 56 56 36 48 44 36 20 12 8 8 8 12 20 36 64 88 92 80 44 80 48 8 0 0 0 0 0 36 56 56 36 24 12 8 8 12 12 20 20 24 24 36 64 56 56 64 64 64 64 68 68 68 68 76 64 56 68 80 92 88 88 80 76 76 68 68 68 64 56 48 44 36 32 24 20 20 32 36 36
44 48 48 56 56 56 64 64 64 64 68 68 76 76 76 76 76 76 76 64 56 48 48 36 36 44 36 36 24 8 8 0 8 20 44 80 92 92 88 36 56 92 92 56 24 0 0 0 48 92 92 92 64 32 24 20 12 8 8 24 32 32 36 36 36 44 56 64 64 68 68 68 68 68 76 80 80 80 76 64 64 68 80 88 88 80 76 76 68 68 76 68 64 64 48 56 44 32 24 32 32 32 44
48 64 64 64 68 68 64 68 76 76 76 76 76 76 76 76 64 56 56 48 48 44 36 32 24 24 20 12 8 8 0 0 8 20 36 80 92 92 92 56 68 92 80 68 56 36 8 32 36 32 20 24 20 12 20 24 24 20 20 32 48 56 48 56 56 64 56 64 64 64 68 64 68 76 88 80 80 80 80 76 76 68 64 68 76 76 64 68 68 68 76 76 76 76 68 68 64 56 36 36 36 36 44
64 68 68 68 64 64 64 64 64 56 48 44 36 36 36 44 44 32 24 24 20 20 12 12 8 8 8 8 8 8 0 12 20 32 64 88 92 92 92 76 80 76 36 20 12 12 20 20 20 12 0 8 12 12 20 24 24 32 24 32 44 56 64 64 68 68 64 64 64 64 64 68 68 68 88 88 88 80 80 80 80 80 80 76 68 68 68 68 68 76 88 88 80 76 68 76 68 64 64 56 56 48 48
56 56 44 44 36 32 24 24 24 20 20 12 20 24 24 32 32 24 24 24 20 12 8 8 8 8 8 12 20 24 32 32 24 32 56 80 92 92 92 80 68 64 92 92 88 68 20 20 24 24 12 8 12 20 24 24 32 32 44 36 36 36 56 64 56 48 56 56 64 64 56 64 68 68 76 80 80 88 88 88 88 80 80 80 80 76 80 80 80 80 88 88 88 88 80 76 76 68 68 68 64 64 64
24 20 24 24 32 36 36 32 32 32 24 32 32 36 36 44 44 32 24 24 20 12 8 8 12 20 20 56 80 92 88 36 24 20 20 48 80 92 88 68 80 92 92 92 92 88 64 44 32 36 56 32 20 20 20 36 36 36 48 44 44 36 36 44 36 36 44 48 56 56 64 64 68 64 64 76 80 80 88 80 88 88 80 80 80 88 88 88 88 88 92 92 88 88 80 80 76 76 76 76 76 76 80
20 24 32 36 36 36 36 44 44 44 36 48 56 68 80 76 68 64 68 64 48 36 36 44 64 76 68 88 92 92 92 56 44 48 48 68 80 92 92 92 92 92 92 92 92 92 92 88 56 48 92 92 64 32 24 56 64 56 48 44 36 36 36 36 44 48 48 56 56 64 76 76 76 76 80 88 88 88 88 88 88 88 88 88 88 88 88 92 92 92 92 92 88 88 88 80 80 76 76 80 88 80 88
24 32 36 36 36 36 36 48 56 64 48 80 92 88 76 68 80 92 92 92 88 88 92 92 92 92 76 92 92 92 92 88 76 76 80 92 80 76 92 92 92 92 88 88 92 92 92 92 88 88 92 92 92 80 36 56 68 76 80 64 48 36 36 44 56 68 68 68 68 76 76 80 80 88 88 92 92 92 92 88 88 88 88 88 92 92 92 92 92 92 92 92 92 92 92 88 80 80 76 80 88 88 88
24 24 32 32 32 32 32 56 64 64 64 80 88 88 76 68 80 92 92 80 76 76 92 88 88 80 64 88 92 92 88 92 88 80 80 88 88 80 92 92 92 92 92 92 92 92 92 92 92 92 92 92 92 92 80 56 64 68 64 68 64 56 48 64 64 68 68 76 76 68 64 56 64 76 88 80 88 92 92 92 88 88 88 88 92 92 92 92 92 92 92 92 92 92 92 92 88 88 80 88 88 88 88